Algona, IA

11:19 PM CDT on March 25, 2017 (GMT -0500)
Algona Municipal

Weather History for KAXA - November, 2013

Change the Weather History Date:

Saturday, November 9, 2013

  Actual Average Record
Temperature  
Mean Temperature 41 °F -  
Max Temperature 50 °F 45 °F 73 °F (1999)
Min Temperature 32 °F 29 °F 21 °F (1996)
Degree Days  
Heating Degree Days 24    
Moisture  
Dew Point 35 °F    
Average Humidity 78    
Maximum Humidity 93    
Minimum Humidity 58    
Precipitation  
Precipitation 0.00 in - - ()
Sea Level Pressure  
Sea Level Pressure 30.02 in    
Wind  
Wind Speed 15 mph (WNW)    
Max Wind Speed 25 mph    
Max Gust Speed 31 mph    
Visibility 10 miles    
Events      
Averages and records for this station are not official NWS values.
T = Trace of Precipitation, MM = Missing Value Source: NWS Daily Summary

Daily Weather History Graph

Daily Weather History Graph

Search for Another Location

Airport or City:

Trip Planner

Search our weather history database for the weather conditions in past years. The results will help you decide how hot, cold, wet, or windy it might be!

Date:

Astronomy

Nov. 09, 2013 Rise Set
Actual Time 7:02 AM CST 4:58 PM CST
Civil Twilight 6:32 AM CST 5:29 PM CST
Nautical Twilight 5:58 AM CST 6:03 PM CST
Astronomical Twilight 5:24 AM CST 6:36 PM CST
Moon 12:38 PM CST (11/9) 11:32 PM CST (11/9)
Length of Visible Light 10h 56m
Length of Day
9h 56m
Waxing Crescent, 44% of the Moon is Illuminated
Nov 9
Waxing Crescent
Nov 9
First Quarter
Nov 17
Full
Nov 25
Last Quarter
Dec 2
New

Hourly Weather History & Observations

Time (CST) Temp. Windchill Dew Point Humidity Pressure Visibility Wind Dir Wind Speed Gust Speed Precip Events Conditions
12:15 AM 42.8 °F 35.1 °F 39.2 °F 87% 29.76 in 10.0 mi West 16.1 mph - N/A   Partly Cloudy
12:35 AM 42.8 °F 35.1 °F 39.2 °F 87% 29.76 in 10.0 mi West 16.1 mph - N/A   Clear
12:55 AM 44.6 °F 37.4 °F 39.2 °F 81% 29.76 in 10.0 mi West 16.1 mph - N/A   Clear
1:15 AM 44.6 °F 37.8 °F 39.2 °F 81% 29.76 in 10.0 mi West 15.0 mph - N/A   Clear
1:35 AM 44.6 °F 37.4 °F 39.2 °F 81% 29.77 in 10.0 mi West 16.1 mph - N/A   Clear
1:55 AM 44.6 °F 37.2 °F 39.2 °F 81% 29.78 in 10.0 mi West 17.3 mph - N/A   Clear
2:15 AM 42.8 °F 35.1 °F 39.2 °F 87% 29.79 in 10.0 mi West 16.1 mph - N/A   Clear
2:35 AM 42.8 °F 35.1 °F 39.2 °F 87% 29.79 in 10.0 mi West 16.1 mph - N/A   Clear
2:55 AM 41.0 °F 33.1 °F 37.4 °F 87% 29.79 in 10.0 mi West 15.0 mph - N/A   Clear
3:15 AM 41.0 °F 33.1 °F 37.4 °F 87% 29.79 in 10.0 mi West 15.0 mph - N/A   Clear
3:35 AM 41.0 °F 33.5 °F 37.4 °F 87% 29.80 in 10.0 mi WSW 13.8 mph - N/A   Clear
3:55 AM 41.0 °F 33.5 °F 37.4 °F 87% 29.81 in 10.0 mi WSW 13.8 mph - N/A   Clear
4:15 AM 39.2 °F 31.2 °F 35.6 °F 87% 29.83 in 10.0 mi WSW 13.8 mph - N/A   Clear
4:35 AM 39.2 °F 30.8 °F 35.6 °F 87% 29.83 in 10.0 mi WSW 15.0 mph - N/A   Clear
4:55 AM 39.2 °F 31.2 °F 35.6 °F 87% 29.84 in 10.0 mi WSW 13.8 mph - N/A   Clear
5:15 AM 39.2 °F 31.2 °F 35.6 °F 87% 29.85 in 10.0 mi WSW 13.8 mph - N/A   Clear
5:35 AM 37.4 °F 29.3 °F 35.6 °F 93% 29.86 in 10.0 mi SW 12.7 mph - N/A   Clear
5:55 AM 37.4 °F 28.9 °F 35.6 °F 93% 29.87 in 10.0 mi WSW 13.8 mph - N/A   Clear
6:15 AM 37.4 °F 28.5 °F 35.6 °F 93% 29.88 in 10.0 mi WSW 15.0 mph - N/A   Clear
6:35 AM 39.2 °F 31.2 °F 35.6 °F 87% 29.89 in 10.0 mi WSW 13.8 mph - N/A   Scattered Clouds
6:55 AM 39.2 °F 31.6 °F 35.6 °F 87% 29.90 in 10.0 mi West 12.7 mph - N/A   Overcast
7:15 AM 39.2 °F 31.2 °F 35.6 °F 87% 29.91 in 10.0 mi West 13.8 mph - N/A   Overcast
7:35 AM 39.2 °F 31.2 °F 35.6 °F 87% 29.93 in 10.0 mi West 13.8 mph - N/A   Overcast
7:55 AM 39.2 °F 30.8 °F 37.4 °F 93% 29.94 in 10.0 mi West 15.0 mph - N/A   Scattered Clouds
8:15 AM 41.0 °F 32.8 °F 37.4 °F 87% 29.95 in 10.0 mi West 16.1 mph - N/A   Partly Cloudy
8:35 AM 41.0 °F 32.5 °F 37.4 °F 87% 29.96 in 10.0 mi WNW 17.3 mph - N/A   Mostly Cloudy
8:55 AM 42.8 °F 35.1 °F 37.4 °F 81% 29.97 in 10.0 mi West 16.1 mph - N/A   Overcast
9:15 AM 42.8 °F 34.8 °F 37.4 °F 81% 29.98 in 10.0 mi West 17.3 mph - N/A   Overcast
9:35 AM 44.6 °F 37.4 °F 39.2 °F 81% 29.98 in 10.0 mi WNW 16.1 mph 23.0 mph N/A   Partly Cloudy
9:55 AM 44.6 °F 37.2 °F 39.2 °F 81% 29.99 in 10.0 mi WNW 17.3 mph 28.8 mph N/A   Scattered Clouds
10:15 AM 46.4 °F 38.7 °F 39.2 °F 76% 30.01 in 10.0 mi WNW 20.7 mph 29.9 mph N/A   Overcast
10:35 AM 46.4 °F 39.0 °F 37.4 °F 71% 30.01 in 10.0 mi NW 19.6 mph 29.9 mph N/A   Overcast
10:55 AM 46.4 °F 39.0 °F 37.4 °F 71% 30.03 in 10.0 mi WNW 19.6 mph 26.5 mph N/A   Mostly Cloudy
11:15 AM 46.4 °F 39.0 °F 37.4 °F 71% 30.04 in 10.0 mi NW 19.6 mph 28.8 mph N/A   Mostly Cloudy
11:35 AM 48.2 °F - 37.4 °F 66% 30.04 in 10.0 mi NW 21.9 mph 27.6 mph N/A   Partly Cloudy
11:55 AM 48.2 °F - 37.4 °F 66% 30.04 in 10.0 mi WNW 16.1 mph 27.6 mph N/A   Scattered Clouds
12:15 PM 48.2 °F - 37.4 °F 66% 30.04 in 10.0 mi WNW 17.3 mph 28.8 mph N/A   Scattered Clouds
12:35 PM 50.0 °F - 37.4 °F 62% 30.03 in 10.0 mi NW 16.1 mph 26.5 mph N/A   Scattered Clouds
12:55 PM 50.0 °F - 37.4 °F 62% 30.04 in 10.0 mi WNW 25.3 mph - N/A   Scattered Clouds
1:15 PM 50.0 °F - 37.4 °F 62% 30.04 in 10.0 mi WNW 17.3 mph 31.1 mph N/A   Mostly Cloudy
1:35 PM 50.0 °F - 35.6 °F 58% 30.04 in 10.0 mi WNW 18.4 mph 31.1 mph N/A   Scattered Clouds
1:55 PM 50.0 °F - 35.6 °F 58% 30.05 in 10.0 mi NW 19.6 mph 31.1 mph N/A   Mostly Cloudy
2:15 PM 48.2 °F - 35.6 °F 62% 30.06 in 10.0 mi NW 20.7 mph 29.9 mph N/A   Mostly Cloudy
2:35 PM 48.2 °F - 35.6 °F 62% 30.07 in 10.0 mi WNW 20.7 mph 28.8 mph N/A   Partly Cloudy
2:55 PM 48.2 °F - 35.6 °F 62% 30.07 in 10.0 mi NW 20.7 mph 27.6 mph N/A   Partly Cloudy
3:15 PM 48.2 °F - 35.6 °F 62% 30.08 in 10.0 mi WNW 21.9 mph 31.1 mph N/A   Partly Cloudy
3:35 PM 48.2 °F - 33.8 °F 58% 30.09 in 10.0 mi WNW 21.9 mph 31.1 mph N/A   Clear
3:55 PM 46.4 °F 38.7 °F 33.8 °F 62% 30.10 in 10.0 mi NW 20.7 mph 27.6 mph N/A   Clear
4:15 PM 46.4 °F 40.4 °F 33.8 °F 62% 30.11 in 10.0 mi WNW 13.8 mph 20.7 mph N/A   Clear
4:35 PM 44.6 °F 38.4 °F 33.8 °F 66% 30.11 in 10.0 mi WNW 12.7 mph 20.7 mph N/A   Clear
4:55 PM 42.8 °F 36.6 °F 33.8 °F 70% 30.12 in 10.0 mi WNW 11.5 mph - N/A   Clear
5:15 PM 42.8 °F 36.6 °F 33.8 °F 70% 30.13 in 10.0 mi WNW 11.5 mph - N/A   Clear
5:35 PM 41.0 °F 34.7 °F 33.8 °F 76% 30.13 in 10.0 mi WNW 10.4 mph - N/A   Scattered Clouds
5:55 PM 41.0 °F 34.3 °F 33.8 °F 76% 30.15 in 10.0 mi WNW 11.5 mph - N/A   Partly Cloudy
6:15 PM 41.0 °F 32.8 °F 32.0 °F 70% 30.16 in 10.0 mi NW 16.1 mph 23.0 mph N/A   Clear
6:35 PM 41.0 °F 33.5 °F 32.0 °F 70% 30.17 in 10.0 mi NW 13.8 mph 21.9 mph N/A   Clear
6:55 PM 39.2 °F 32.0 °F 30.2 °F 70% 30.18 in 10.0 mi NW 11.5 mph - N/A   Clear
7:15 PM 39.2 °F 31.6 °F 30.2 °F 70% 30.19 in 10.0 mi NW 12.7 mph - N/A   Partly Cloudy
7:35 PM 37.4 °F 29.8 °F 30.2 °F 75% 30.20 in 10.0 mi NW 11.5 mph - N/A   Clear
8:35 PM 33.8 °F 26.4 °F 30.2 °F 87% 30.22 in 10.0 mi West 9.2 mph - N/A   Clear
8:55 PM 32.0 °F 24.2 °F 30.2 °F 93% 30.23 in 10.0 mi West 9.2 mph - N/A   Clear
9:15 PM 33.8 °F 27.7 °F 30.2 °F 87% 30.24 in 10.0 mi WNW 6.9 mph - N/A   Clear
9:35 PM 35.6 °F 27.1 °F 30.2 °F 81% 30.25 in 10.0 mi NW 12.7 mph - N/A   Clear
9:55 PM 35.6 °F 27.1 °F 28.4 °F 75% 30.26 in 10.0 mi NW 12.7 mph 20.7 mph N/A   Clear
10:15 PM 33.8 °F 26.4 °F 28.4 °F 81% 30.27 in 10.0 mi NW 9.2 mph 16.1 mph N/A   Clear
10:35 PM 32.0 °F 25.6 °F 28.4 °F 87% 30.28 in 10.0 mi WNW 6.9 mph - N/A   Clear
10:55 PM 32.0 °F 24.8 °F 28.4 °F 87% 30.28 in - WNW 8.1 mph - N/A   Clear
11:15 PM 32.0 °F 24.2 °F 28.4 °F 87% 30.28 in 10.0 mi WNW 9.2 mph - N/A   Clear
11:35 PM 32.0 °F 22.5 °F 26.6 °F 80% 30.29 in 10.0 mi NW 12.7 mph - N/A   Clear
11:55 PM 32.0 °F 22.5 °F 26.6 °F 80% 30.29 in 10.0 mi NW 12.7 mph - N/A   Clear